Location: Roc des P�zouls
(43.9667°N, 3.5500°E)
Time: 01:48:47
(UTC+00:00)

Cosmos 2112 Rocket - Pass Details

Date: 14 November 2019
Orbit: 755 x 788 km, 74.1° (Epoch: 06 December)

Event Time Altitude Azimuth Distance (km) Brightness Sun altitude
Exits shadow 04:34:38 20° 341° (NNW) 1,746 5.6 -22.3°
Maximum altitude 04:38:24 85° 69° (ENE) 790 4.0 -21.7°
Drops below altitude 10° 04:43:43 10° 159° (SSE) 2,336 6.8 -20.7°
Sets 04:46:06 0° 160° (SSE) 3,263 7.6 -20.3°
